Weather in Cartago

Costa Rica     9°51′44″N   83°55′39″W
temp.,
°C
wind,
m/s
gust,
m/s
humid.,
%
clouds,
%
prec.,
mm/h
press.,
hPa
HPBL,
m
23 may, mon
mon2300:00+17ene1296100 5.4 101688
03:00+15ene239677 0.1 1015103
06:00+16ene2494100 0.1 1016133
09:00+21ne127776 0.4 1015673
12:00+22w217572 3.2 1013847
15:00+20wnw1187100 6.3 1012409
18:00+17ene1196100 10.3 101451
21:00+17ene0096100 3.9 101530
24 may, tue
tue2400:00+16wsw0199100 5.1 101441
03:00+16e0098100 0.8 101220
06:00+16ene1195100 0.9 101342
09:00+20wsw118380 1.9 1014688
12:00+19w1193100 6.6 1013330
15:00+17w2499100 15.3 1010267
18:00+16ssw1199100 44.4 101299
21:00+16e1198100 2.1 101574
25 may, wed
wed2500:00+16e1194100 2.6 101432
03:00+16e1194100 0.2 101233
06:00+16ene1293100 0.3 101444
09:00+21wsw117398 0.1 1014894
12:00+19wnw1291100 2.7 1013429
15:00+18nnw139598 7.1 1011316
18:00+16se1296100 20.6 101467
21:00+16se1196100 1.4 101524
26 may, thu
thu2600:00+15e0198100 1.9 101534
03:00+15ne119699 0.1 101432
06:00+15ene2395100 0.1 101581
09:00+21nne127748 0.6 1015745
12:00+21wnw127690 3.2 1013846
15:00+19n138893 6.9 1012453
18:00+17se0197100 22.9 101449
21:00+16ene1295100 2.1 101571
27 may, fri
fri2700:00+16ese1194100 2.3 101516
03:00+15ene1194100 0.1 101422
06:00+16e1293100 0.1 101549
09:00+20w1178100 0.1 1015707
12:00+19wnw1286100 2.0 1014550
15:00+18nw1190100 1.4 1012397
18:00+17ene1196100 2.1 101464
21:00+16ene1296100 0.3 101542